This is the latest recevied weather packets stored in our database for station/object N0KWA. If no packets are shown the sender has not sent any weather packets the latest 10 day(s).
| Time | Temp. | Humidity | Pressure | Rain* | Wind** | Luminosity | Snow |
|---|---|---|---|---|---|---|---|
| 1777763165 | 21.11° C | 51% | 1017.9 hPa | 0 mm | - | 10 W/m² | - |
| 1777762863 | 21.11° C | 47% | 1017.7 hPa | 0 mm | - | 21 W/m² | - |
| 1777762558 | 21.11° C | 48% | 1017.9 hPa | 0 mm | - | 6 W/m² | - |
| 1777762255 | 21.11° C | 47% | 1017.6 hPa | 0 mm | - | 8 W/m² | - |
| 1777761951 | 21.11° C | 47% | 1017.6 hPa | 0 mm | - | 5 W/m² | - |
| 1777761648 | 21.11° C | 46% | 1017.7 hPa | 0 mm | - | 5 W/m² | - |
| 1777761346 | 21.11° C | 47% | 1017.6 hPa | 0 mm | - | 7 W/m² | - |
| 1777761045 | 21.11° C | 44% | 1017.8 hPa | 0 mm | - | 6 W/m² | - |
| 1777760741 | 21.11° C | 45% | 1017.7 hPa | 0 mm | - | 6 W/m² | - |
| 1777760437 | 21.11° C | 46% | 1017.6 hPa | 0 mm | - | 7 W/m² | - |
| 1777760133 | 21.67° C | 47% | 1017.7 hPa | 0 mm | - | 6 W/m² | - |
| 1777759831 | 21.11° C | 46% | 1017.5 hPa | 0 mm | - | 7 W/m² | - |
| 1777759526 | 21.67° C | 46% | 1017.5 hPa | 0 mm | - | 8 W/m² | - |
| 1777759223 | 21.67° C | 45% | 1017.7 hPa | 0 mm | - | 8 W/m² | - |
| 1777758921 | 21.67° C | 45% | 1017.4 hPa | 0 mm | - | 9 W/m² | - |
| 1777758617 | 21.67° C | 44% | 1017.5 hPa | 0 mm | - | 9 W/m² | - |
| 1777758315 | 21.67° C | 49% | 1017.7 hPa | 0 mm | - | 9 W/m² | - |
| 1777758012 | 21.67° C | 48% | 1017.4 hPa | 0 mm | - | 10 W/m² | - |
| 1777757708 | 21.67° C | 45% | 1017.5 hPa | 0 mm | - | 10 W/m² | - |
| 1777757407 | 21.67° C | 44% | 1017.4 hPa | 0 mm | - | 11 W/m² | - |
| 1777757105 | 21.67° C | 47% | 1017.4 hPa | 0 mm | - | 10 W/m² | - |
| 1777756802 | 21.67° C | 46% | 1017.3 hPa | 0 mm | - | 11 W/m² | - |
| 1777756497 | 21.67° C | 44% | 1017.3 hPa | 0 mm | - | 12 W/m² | - |
| 1777756195 | 21.67° C | 46% | 1017.3 hPa | 0 mm | - | 14 W/m² | - |
| 1777755892 | 21.67° C | 47% | 1017.4 hPa | 0 mm | - | 45 W/m² | - |
* Rain latest hour (hover to see other rain measurements)
** Current wind speed in m/s (hover to see current wind gust speed)